Regional Weather Roundup
Issued by NWS

Home | Current Version | Previous Version | Graphics & Text | Print | Product List | Glossary On
Versions: 1 2 3 4 5 6 7 8 9 10 11 12 13 14 15 16 17 18 19 20 21 22 23 24 25 26 27 28 29 30 31 32 33 34 35 36 37 38 39 40 41 42 43 44 45 46 47 48 49 50
000
ASUS43 KBIS 280210
RWRND

NORTH DAKOTA REGIONAL WEATHER ROUNDUP
NATIONAL WEATHER SERVICE BISMARCK ND
900 PM CDT THU JUL 27 2017

NOTE: "FAIR" INDICATES FEW OR NO CLOUDS BELOW 12,000 FEET WITH NO
SIGNIFICANT WEATHER AND/OR OBSTRUCTIONS TO VISIBILITY.


NDZ001>003-009>011-017-280300-
NORTHWEST NORTH DAKOTA

CITY           SKY/WX    TMP DP  RH WIND       PRES   REMARKS
WILLISTON      MOCLDY    74  67  78 CALM      30.00F
MINOT          MOCLDY    78  57  48 SE8       30.02S
MINOT AFB      CLOUDY    76  60  56 SE10      30.01S
$$

NDZ018>021-031>035-040>046-280300-
SOUTHWEST NORTH DAKOTA

CITY           SKY/WX    TMP DP  RH WIND       PRES   REMARKS
BISMARCK       CLOUDY    76  62  62 E8        30.02S
DICKINSON      CLOUDY    70  65  84 S3        30.03R
GARRISON         N/A     73  62  68 E7        30.02S
HETTINGER ARPT CLEAR     72  54  53 SE6       30.05R
$$

NDZ004>008-012>016-024-026-027-054-280300-
NORTHEAST NORTH DAKOTA

CITY           SKY/WX    TMP DP  RH WIND       PRES   REMARKS
GRAND FORKS    PTCLDY    74  65  73 S3        30.04S
GRND FRKS AFB  CLEAR     74  61  64 CALM      30.05F
DEVILS LAKE    CLOUDY    75  57  53 S6        30.07S
$$

NDZ022-023-025-028>030-036>039-047>053-280300-
SOUTHEAST NORTH DAKOTA

CITY           SKY/WX    TMP DP  RH WIND       PRES   REMARKS
FARGO          CLOUDY    74  60  61 CALM      30.04F
JAMESTOWN      CLOUDY    71  61  70 E6        30.06S
$$





USA.gov is the U.S. government's official web portal to all federal, state and local government web resources and services.